This is the latest recevied weather packets stored in our database for station/object WX4SGA. If no packets are shown the sender has not sent any weather packets the latest 10 day(s).
| Time | Temp. | Humidity | Pressure | Rain* | Wind** | Luminosity | Snow |
|---|---|---|---|---|---|---|---|
| 1777819165 | 18.89° C | 56% | 1020.3 hPa | 0 mm | - | 571 W/m² | - |
| 1777818862 | 18.89° C | 57% | 1020.7 hPa | 0 mm | - | 559 W/m² | - |
| 1777818557 | 18.89° C | 61% | 1020.7 hPa | 0 mm | - | 547 W/m² | - |
| 1777818256 | 18.33° C | 58% | 1020.7 hPa | 0 mm | - | 532 W/m² | - |
| 1777817951 | 18.33° C | 61% | 1020.3 hPa | 0 mm | - | 519 W/m² | - |
| 1777817649 | 18.33° C | 61% | 1020.7 hPa | 0 mm | - | 505 W/m² | - |
| 1777817345 | 17.78° C | 64% | 1020.7 hPa | 0 mm | - | 490 W/m² | - |
| 1777817042 | 17.78° C | 63% | 1020.7 hPa | 0 mm | - | 461 W/m² | - |
| 1777816738 | 17.78° C | 64% | 1020.7 hPa | 0 mm | - | 282 W/m² | - |
| 1777816435 | 17.22° C | 65% | 1020.7 hPa | 0 mm | - | 441 W/m² | - |
| 1777816133 | 17.22° C | 68% | 1020.7 hPa | 0 mm | - | 429 W/m² | - |
| 1777815831 | 17.22° C | 69% | 1020.7 hPa | 0 mm | - | 280 W/m² | - |
| 1777815528 | 17.22° C | 69% | 1020.3 hPa | 0 mm | - | 302 W/m² | - |
| 1777815225 | 16.11° C | 73% | 1020.7 hPa | 0 mm | - | 376 W/m² | - |
| 1777814921 | 16.11° C | 73% | 1020.7 hPa | 0 mm | - | 358 W/m² | - |
| 1777814618 | 15.56° C | 75% | 1020.3 hPa | 0 mm | - | 335 W/m² | - |
| 1777814315 | 15.56° C | 75% | 1020.3 hPa | 0 mm | - | 313 W/m² | - |
| 1777814012 | 15° C | 75% | 1020.7 hPa | 0 mm | - | 299 W/m² | - |
| 1777813709 | 15° C | 74% | 1020.7 hPa | 0 mm | - | 281 W/m² | - |
| 1777813407 | 14.44° C | 78% | 1020.7 hPa | 0 mm | - | 264 W/m² | - |
| 1777813104 | 14.44° C | 74% | 1020.7 hPa | 0 mm | - | 245 W/m² | - |
| 1777812802 | 13.89° C | 76% | 1020.7 hPa | 0 mm | - | 223 W/m² | - |
| 1777812498 | 13.89° C | 76% | 1020.7 hPa | 0 mm | - | 190 W/m² | - |
| 1777812196 | 13.89° C | 78% | 1020.3 hPa | 0 mm | - | 136 W/m² | - |
| 1777811894 | 13.33° C | 78% | 1020.7 hPa | 0 mm | - | 112 W/m² | - |
* Rain latest hour (hover to see other rain measurements)
** Current wind speed in m/s (hover to see current wind gust speed)